Estación de Punitaqui

Ultimos registro cada 15 minutos 30
Estación Fecha / Hora Temperatura Humedad Lluvia Velocidad Dirección Radiación Presion
30 Punitaqui 05-05-2026 07:15 7,7 87,4 0 0 334 0,6 990,9
29 Punitaqui 05-05-2026 07:00 6,5 86,9 0 0 334 0,6 990,5
28 Punitaqui 05-05-2026 06:45 6,2 86,4 0 0 334 0,6 990,4
27 Punitaqui 05-05-2026 06:30 6,9 86,2 0 0 334 0,6 990,1
26 Punitaqui 05-05-2026 06:15 5,8 85,3 0 0 334 0,6 990,1
25 Punitaqui 05-05-2026 06:00 5,1 84,7 0 0 334 0,6 989,9
24 Punitaqui 05-05-2026 05:45 5,8 84,7 0 0 334 0,6 989,9
23 Punitaqui 05-05-2026 05:30 6,4 84,9 0 0 334 0,6 989,3
22 Punitaqui 05-05-2026 05:15 6,5 84,4 0 0 334 0,6 989,4
21 Punitaqui 05-05-2026 05:00 5,9 83,8 0 0 334 0,6 989,4
20 Punitaqui 05-05-2026 04:45 6,6 83,8 0 0 334 0,6 989,3
19 Punitaqui 05-05-2026 04:30 6,3 83,4 0 0 334 0,6 989,4
18 Punitaqui 05-05-2026 04:15 6,9 83 0 0 334 0,6 989
17 Punitaqui 05-05-2026 04:00 6,5 82,4 0 0 334 0,6 989
16 Punitaqui 05-05-2026 03:45 6,4 81,9 0 0 334 0,6 988,8
15 Punitaqui 05-05-2026 03:30 7,1 81,7 0 0 334 0,6 988,9
14 Punitaqui 05-05-2026 03:15 7 81 0 0 334 0,6 989
13 Punitaqui 05-05-2026 03:00 6,8 80,7 0 0 334 0,6 989,5
12 Punitaqui 05-05-2026 02:45 7,7 80,3 0 0 334 0,6 989,5
11 Punitaqui 05-05-2026 02:30 7,8 79,5 0 0 334 0,6 989,4
10 Punitaqui 05-05-2026 02:15 8,3 79,2 0 0 334 0,6 989,6
9 Punitaqui 05-05-2026 02:00 8,8 78,7 0 0 334 0,6 989,9
8 Punitaqui 05-05-2026 01:45 7,9 77,7 0 0 334 0,6 990
7 Punitaqui 05-05-2026 01:30 8,5 77,3 0 0 334 0,6 989,9
6 Punitaqui 05-05-2026 01:15 9 77 0 0 334 0,6 989,8
5 Punitaqui 05-05-2026 01:00 9,2 76,6 0 0 334 0,6 989,8
4 Punitaqui 05-05-2026 00:45 9,8 76,4 0 0 334 0,6 990,1
3 Punitaqui 05-05-2026 00:30 9,7 75,5 0 0 334 0,6 990,3
2 Punitaqui 05-05-2026 00:15 10 74,8 0 0 334 0,6 990
1 Punitaqui 05-05-2026 00:00 10,6 73,7 0 0 334 0,6 990,1